[[{"header":{"parameterUnit":"m.s-1","parameterCategory":1,"la1":30.2991,"la2":30.254,"lo1":-89.0895,"lo2":-89.0444,"dy":0.0017,"dx":0.0017,"nx":28,"ny":28,"refTime":"2024-06-05T09:00:00:Z","depth":0,"parameterNumber":2,"parameterNumberName":"U-component_of_WINDS"},"data":[0,0,0,0,0,0,0,0,0,0,0,0,0,0,0,0,0,0,0,0,0,0,0,0,0,0,0,0,0,0,0,0,0,0,0,0,0,0,0,0,0,0,0,0,0,0,0,0,0,0,0,0,0,0,0,0,0,0,2.8204,2.8205,0,2.8293,2.8294,2.8295,2.826,2.8258,2.8256,2.8254,2.835,2.8354,2.8359,0,0,0,0,0,0,0,0,0,0,0,0,0,2.8008,2.8012,2.8203,2.8205,2.8206,2.8293,2.8294,2.8296,2.8261,2.8258,2.8256,2.8253,2.8349,2.8354,2.8359,0,0,0,0,0,0,0,0,0,0,0,0,0,2.8095,2.8013,2.8203,2.8199,2.8199,2.8293,2.8294,2.8296,2.8261,2.8258,2.8255,2.8252,2.8347,2.8353,2.836,2.8464,0,0,2.8381,2.8384,0,0,0,0,0,0,0,0,2.809,2.8102,2.8198,2.8199,2.82,2.8262,2.8261,2.8353,2.8262,2.8238,2.8254,2.8251,2.8324,2.8332,2.8356,2.8469,2.8473,2.8381,2.8385,2.8388,2.839,0,0,0,0,0,0,0,2.8084,2.8098,2.8239,2.82,2.8201,2.8194,2.8203,2.8278,2.8297,2.824,2.8237,2.8248,2.8324,2.835,2.8358,2.8474,2.8381,2.8387,2.8391,2.8394,2.8682,2.8685,0,0,0,0,0,0,2.8077,2.8093,2.8236,2.8242,2.8136,2.82,2.821,2.8246,2.8296,2.8301,2.8251,2.8246,2.834,2.835,2.8361,2.8489,2.8388,2.8395,2.8398,2.8678,2.8683,2.8686,0,0,0,0,0,0,2.8073,2.809,2.8233,2.8167,2.8185,2.8207,2.8247,2.8249,2.8275,2.8305,2.8309,2.8273,2.8338,2.8352,2.844,2.8492,2.8398,2.8404,2.8674,2.868,2.8685,2.8744,0,0,0,0,0,0,2.8068,2.8089,2.8127,2.8168,2.8188,2.8308,2.825,2.8253,2.8286,2.8281,2.8327,2.8332,2.8336,2.843,2.8446,2.8499,2.8409,2.8669,2.8676,2.8683,2.8737,2.875,2.8762,0,0,0,0,0,2.8061,2.814,2.8129,2.8147,2.8236,2.8311,2.8322,2.8325,2.829,2.833,2.835,2.833,2.8483,2.8439,2.8457,2.8513,2.8666,2.8674,2.8682,2.8732,2.8748,2.8761,0,0,0,0,0,0,2.8105,2.8145,2.8133,2.8228,2.8266,2.8305,2.8354,2.8341,2.8391,2.8384,2.8386,2.8397,2.8488,2.851,2.8459,2.8619,2.857,2.8582,2.8601,2.8617,2.8629,2.8622,2.8415,0,0,0,0,0,2.8126,2.8181,2.8214,2.8295,2.8314,2.8332,2.8364,2.8363,2.8403,2.8419,2.8445,2.8486,2.8544,2.8582,2.8636,2.8741,2.8752,2.8789,2.8801,2.8811,2.8821,2.8881,2.8898,2.8713,2.8713,2.8713,0,0,2.8169,2.8198,2.8233,2.8304,2.8334,2.8393,2.8345,2.8409,2.8454,2.8429,2.8514,2.8535,2.8581,2.8679,2.8723,2.8699,2.8875,2.8821,2.8829,2.8834,2.8891,2.8909,2.8924,2.8719,2.8718,2.8717,0,0,2.8278,2.8305,2.8376,2.8407,2.8452,2.8464,2.8481,2.8523,2.8536,2.8621,2.8604,2.8659,2.8757,2.8791,2.8822,2.8949,2.8933,2.8967,2.9031,2.9089,2.9104,2.9117,2.9164,2.9181,2.8977,2.8978,2.8978,0,2.8326,2.8414,2.8415,2.8481,2.8515,2.8495,2.8569,2.8599,2.866,2.8685,2.8658,2.8783,2.8812,2.8919,2.895,2.8975,2.8997,2.8961,2.9102,2.9115,2.9127,2.9172,2.9189,2.8981,2.8981,2.8981,2.898,0,2.8472,2.8534,2.8586,2.8646,2.8685,2.8755,2.8769,2.8809,2.8806,2.8821,2.891,2.8946,2.9008,2.9034,2.9031,2.9141,2.9125,2.91,2.9051,2.9148,2.9191,2.9208,2.8987,2.8986,2.8984,2.8983,0,0,2.8609,2.867,2.869,2.8718,2.8768,2.8817,2.8888,2.8948,2.8984,2.9028,2.9089,2.9175,2.9153,2.9187,2.9189,2.924,2.9342,2.9209,2.921,2.9233,2.9468,2.9487,2.9506,2.9332,2.9335,2.9338,2.9464,0,2.8723,2.8845,2.885,2.8963,2.9021,2.9005,2.9068,2.9107,2.9124,2.9178,2.9198,2.9259,2.9224,2.9245,2.9295,2.9318,2.9389,2.9309,2.939,2.9393,2.9379,2.9528,2.9547,2.9665,2.9481,2.9484,2.9486,0,2.8871,2.892,2.9039,2.9084,2.9108,2.9164,2.9222,2.9273,2.9319,2.9328,2.9369,2.9364,2.9439,2.9388,2.9494,2.944,2.9474,2.9491,2.9495,2.9503,2.9445,2.954,2.9702,2.972,2.9511,2.9509,2.9507,0,2.8961,2.9057,2.914,2.9165,2.9219,2.9259,2.9284,2.9326,2.9364,2.9415,2.944,2.95,2.9533,2.9581,2.9594,2.9555,2.97,2.9649,2.9711,2.9711,2.9742,2.9739,2.9912,2.9764,2.9763,2.9763,2.9763,0,2.9087,2.9161,2.9182,2.9233,2.9316,2.9323,2.9406,2.9428,2.9467,2.9524,2.9515,2.957,2.9583,2.9641,2.9652,2.9739,2.9754,2.9765,2.9767,2.9766,2.9764,2.9787,2.978,2.9768,2.9767,2.9766,2.9765,0,2.92,2.9217,2.9308,2.9353,2.9366,2.9425,2.9465,2.9516,2.9533,2.9607,2.9624,2.9652,2.972,2.9738,2.982,2.9827,2.993,2.9924,2.9914,2.9914,2.9975,2.9969,3.0168,3.0195,3.0029,3.0031,3.0032,0,2.928,2.9336,2.9388,2.9425,2.9452,2.9512,2.9551,2.9562,2.9602,2.9661,2.9706,2.9773,2.9826,2.9937,2.9966,3.0029,3.0025,3.0091,3.0034,3.0032,3.0027,3.0023,3.003,3.0101,3.0103,3.0104,3.0105,0,2.9419,2.9426,2.9481,2.9541,2.9587,2.9634,2.968,2.9712,2.9729,2.9776,2.9846,2.9888,2.9972,3.004,3.0104,3.0132,3.0123,3.0123,3.0141,3.014,3.0132,3.0138,2.9944,3.0118,3.0117,3.0116,3.0115,3.0115,2.9519,2.9569,2.9614,2.9677,2.9713,2.9756,2.9807,2.9832,2.9889,2.9958,2.9962,3.0038,3.0086,3.0171,3.0203,3.0265,3.0245,3.0271,3.0277,3.0283,3.0289,3.0123,3.0277,3.0276,3.0276,3.0276,3.0275,0,2.9659,2.9688,2.9746,2.981,2.9861,2.9847,2.9898,2.9942,3.0008,3.0053,3.0107,3.0189,3.0256,3.0291,3.0358,3.04,3.0398,3.0417,3.0414,3.0421,3.0302,3.028,3.0418,3.0418,3.0418,3.0418,3.0418,3.0418,2.9737,2.9822,2.9835,2.9939,2.9968,3.0042,3.0073,3.0114,3.015,3.0242,3.0297,3.0319,3.0361,3.0432,3.0493,3.0502,3.0527,3.055,3.0556,3.0444,3.0429,3.0415,3.0395,3.0555,3.0555,3.0671,3.0672,3.0672]},{"header":{"parameterUnit":"m.s-1","parameterCategory":1,"la1":30.2991,"la2":30.254,"lo1":-89.0895,"lo2":-89.0444,"dy":0.0017,"dx":0.0017,"nx":28,"ny":28,"refTime":"2024-06-05T09:00:00:Z","depth":0,"parameterNumber":3,"parameterNumberName":"V-component_of_WINDS"},"data":[0,0,0,0,0,0,0,0,0,0,0,0,0,0,0,0,0,0,0,0,0,0,0,0,0,0,0,0,0,0,0,0,0,0,0,0,0,0,0,0,0,0,0,0,0,0,0,0,0,0,0,0,0,0,0,0,0,0,1.4847,1.4851,0,1.5147,1.515,1.5153,1.5188,1.5185,1.5182,1.5179,1.5493,1.5504,1.5515,0,0,0,0,0,0,0,0,0,0,0,0,0,1.431,1.4319,1.4847,1.4851,1.4855,1.5146,1.515,1.5154,1.5189,1.5185,1.5181,1.5178,1.5489,1.5502,1.5516,0,0,0,0,0,0,0,0,0,0,0,0,0,1.457,1.4323,1.4846,1.4907,1.4915,1.5145,1.515,1.5155,1.5189,1.5185,1.518,1.5176,1.5485,1.5501,1.5517,1.571,0,0,1.5568,1.5576,0,0,0,0,0,0,0,0,1.4555,1.4589,1.4894,1.4903,1.4913,1.5125,1.5076,1.5342,1.5191,1.5086,1.5179,1.5174,1.5375,1.54,1.5466,1.5725,1.5738,1.557,1.558,1.5587,1.5592,0,0,0,0,0,0,0,1.4537,1.4577,1.4966,1.4899,1.491,1.492,1.4952,1.5126,1.5252,1.5094,1.5098,1.5132,1.5379,1.545,1.5474,1.5743,1.5569,1.5584,1.5595,1.5601,1.6172,1.6177,0,0,0,0,0,0,1.4507,1.4561,1.4956,1.4975,1.4719,1.4933,1.4969,1.5062,1.525,1.5274,1.5136,1.5133,1.5424,1.5454,1.5485,1.5722,1.5587,1.5603,1.5612,1.6167,1.6173,1.6179,0,0,0,0,0,0,1.4495,1.4542,1.4944,1.4769,1.4821,1.4947,1.5051,1.507,1.5141,1.5281,1.5304,1.5185,1.5421,1.5462,1.5653,1.5733,1.561,1.5625,1.6161,1.6169,1.6176,1.6198,0,0,0,0,0,0,1.448,1.4537,1.4611,1.477,1.483,1.5106,1.5056,1.5079,1.5169,1.5168,1.5334,1.5357,1.5421,1.5628,1.567,1.5754,1.5639,1.6155,1.6165,1.6174,1.6191,1.6205,1.6218,0,0,0,0,0,1.446,1.4607,1.4615,1.4662,1.4925,1.5111,1.5145,1.5214,1.5175,1.5251,1.534,1.5352,1.5717,1.5647,1.5694,1.5785,1.615,1.6162,1.6173,1.6184,1.6202,1.6218,0,0,0,0,0,0,1.4458,1.463,1.464,1.4842,1.4961,1.5116,1.5214,1.5231,1.5366,1.536,1.5441,1.5478,1.5666,1.5745,1.5664,1.598,1.593,1.5951,1.5922,1.5941,1.5954,1.5932,1.5652,0,0,0,0,0,1.448,1.4615,1.4758,1.4923,1.4982,1.5087,1.5171,1.5213,1.5341,1.5392,1.5496,1.5621,1.5763,1.5856,1.5996,1.6201,1.6237,1.6287,1.63,1.6311,1.6329,1.6442,1.6465,1.6217,1.6217,1.6217,0,0,1.453,1.464,1.4721,1.4926,1.5023,1.5161,1.513,1.5279,1.5383,1.5416,1.5602,1.5682,1.5826,1.6025,1.6118,1.6097,1.6405,1.6326,1.6333,1.6346,1.6456,1.648,1.65,1.6225,1.6224,1.6222,0,0,1.469,1.4786,1.4934,1.503,1.5176,1.5245,1.528,1.5432,1.5485,1.5672,1.5699,1.5824,1.6069,1.617,1.6254,1.6448,1.6463,1.6491,1.6563,1.6672,1.6692,1.671,1.6778,1.6802,1.6508,1.6508,1.6508,0,1.4733,1.4942,1.5008,1.5155,1.5244,1.5276,1.5426,1.5517,1.5703,1.5764,1.5736,1.6042,1.6142,1.6364,1.641,1.6477,1.652,1.6474,1.6683,1.6702,1.6719,1.6786,1.6812,1.6511,1.651,1.651,1.651,0,1.4987,1.5131,1.5233,1.5407,1.5507,1.5655,1.5745,1.5839,1.5871,1.5942,1.6132,1.6252,1.6415,1.647,1.6505,1.6697,1.6679,1.6666,1.6618,1.6744,1.6808,1.6834,1.6514,1.6513,1.6513,1.6512,0,0,1.5158,1.5363,1.54,1.5478,1.564,1.5753,1.5902,1.6058,1.6137,1.6263,1.639,1.6593,1.6582,1.6676,1.6722,1.6818,1.6962,1.6794,1.6798,1.6821,1.718,1.7189,1.7217,1.6972,1.6977,1.6981,1.7168,0,1.5337,1.5601,1.5663,1.589,1.6023,1.6053,1.6183,1.6296,1.6366,1.649,1.6568,1.671,1.6685,1.6741,1.6837,1.6924,1.7035,1.6911,1.7092,1.7098,1.7056,1.7251,1.7262,1.7432,1.7193,1.7197,1.72,0,1.5582,1.5709,1.5948,1.6089,1.6148,1.6263,1.641,1.6528,1.6656,1.67,1.6803,1.6838,1.6995,1.6935,1.7152,1.7066,1.7143,1.7196,1.7204,1.7226,1.7158,1.7277,1.7488,1.7514,1.7241,1.7237,1.7234,0,1.5682,1.5913,1.6086,1.6152,1.6321,1.6401,1.6476,1.6599,1.6689,1.6817,1.6876,1.7022,1.7102,1.7215,1.7288,1.7238,1.7498,1.7446,1.754,1.7538,1.7595,1.7591,1.7822,1.7643,1.7642,1.7642,1.7641,0,1.5876,1.6021,1.6132,1.6239,1.6402,1.6471,1.6631,1.6706,1.6816,1.6937,1.6973,1.7087,1.7176,1.7302,1.7361,1.753,1.7566,1.7606,1.7621,1.7604,1.7599,1.7657,1.7648,1.7649,1.7647,1.7646,1.7644,0,1.6017,1.6097,1.6287,1.643,1.6469,1.6583,1.6706,1.681,1.6878,1.7032,1.7072,1.7181,1.7331,1.7414,1.7603,1.7642,1.7831,1.7839,1.7787,1.7794,1.7883,1.7873,1.816,1.8201,1.7994,1.7996,1.7997,0,1.6136,1.6248,1.6401,1.6484,1.6559,1.6692,1.6782,1.6854,1.6947,1.7099,1.7185,1.7336,1.7461,1.7699,1.7796,1.794,1.7952,1.8042,1.7974,1.7953,1.7953,1.7946,1.7957,1.8055,1.8057,1.8058,1.8059,0,1.6339,1.6372,1.6499,1.664,1.6745,1.686,1.6974,1.704,1.7131,1.7233,1.7385,1.7481,1.7672,1.7822,1.7973,1.8051,1.8071,1.8079,1.8109,1.8094,1.8059,1.8079,1.782,1.8073,1.8072,1.8071,1.807,1.807,1.6473,1.6573,1.6695,1.6836,1.6928,1.7032,1.7137,1.7216,1.7344,1.7503,1.7538,1.7698,1.7822,1.8026,1.8107,1.8234,1.8217,1.826,1.8271,1.8281,1.8284,1.8037,1.8262,1.8261,1.8261,1.8261,1.8261,0,1.6678,1.6757,1.6885,1.7041,1.7151,1.7156,1.7282,1.7374,1.7513,1.7626,1.7746,1.792,1.8064,1.817,1.8317,1.8398,1.8411,1.8434,1.843,1.8447,1.829,1.825,1.8421,1.8421,1.8421,1.8421,1.8421,1.8421,1.6797,1.6966,1.7013,1.7227,1.7306,1.7461,1.7532,1.7629,1.7718,1.791,1.8029,1.8095,1.8206,1.836,1.8492,1.852,1.8573,1.8595,1.8624,1.8476,1.8459,1.8442,1.8405,1.8606,1.8606,1.8771,1.8772,1.8773]}]]